Regional Weather Roundup
Issued by NWS Upton, NY

Current Version | Previous Version | Text Only | Print | Product List | Glossary On
Versions: 1 2 3 4 5 6 7 8 9 10 11 12 13 14 15 16 17 18 19 20 21 22 23 24 25 26 27 28 29 30 31 32 33 34 35 36 37 38 39 40 41 42 43 44 45 46 47 48 49 50
859
ASUS41 KOKX 181009
RWROKX

Regional Weather Roundup
National Weather Service New York NY
500 AM EST THU JAN 18 2018

Note: "FAIR" indicates few or no clouds below 12,000 feet with no
significant weather and/or obstructions to visibility.

NYZ071-072-176-178-NJZ106-104-181100-
New York City Metro Area

CITY           SKY/WX    TMP DP  RH WIND       PRES   REMARKS
Central Park   FAIR      19   9  65 NW5       30.06F WCI  12
Bronx Bot Gard   N/A     21   9  58 N2        30.05S
Bronx Lehman C   N/A     19   9  63 NW6         N/A  WCI  11
LaGuardia Arpt FAIR      21  10  62 NW16      30.04F WCI   7
Queens College   N/A     21  10  63 N10         N/A  WCI  10
Kennedy Intl   FAIR      20  10  65 NW20      30.04F WCI   4
Breezy Point     N/A    N/A N/A N/A NW12G18     N/A
Brooklyn Coll    N/A     21  10  63 W12         N/A  WCI   9
Staten Island    N/A     19  10  68 NW7         N/A  WCI  10
Newark/Liberty FAIR      18   8  65 NW7       30.06F WCI   9
Teterboro      FAIR      16   8  71 W5        30.05F WCI   9
$$

NYZ177-179-078>081-181100-
Long Island New York

CITY           SKY/WX    TMP DP  RH WIND       PRES   REMARKS
Jones Beach      N/A    N/A N/A N/A N16         N/A
Wantagh          N/A     21  10  63 NW8         N/A  WCI  12
Matinecock Pt    N/A    N/A N/A N/A NW14        N/A
Farmingdale    FAIR      19  11  70 N8        30.02F WCI   9
MacArthur/ISP  FAIR      21  13  71 N12       30.01F WCI   9
Shirley        FAIR      20  12  71 N9        30.02F WCI   9
Mt Sinai Harb    N/A    N/A N/A N/A NW6G12      N/A
Westhampton    FAIR      20  12  71 N9        30.03F WCI   9
East Hampton   FAIR      20  12  73 N8        30.01F WCI  10
Southold         N/A     23  12  63 N15         N/A  WCI  10
Montauk          N/A     26  15  63 N13       30.02F WCI  15
$$

NYZ052-065-067-181100-
Hudson Valley

CITY           SKY/WX    TMP DP  RH WIND       PRES   REMARKS
White Plains   FAIR      16   8  71 NW8       30.00F WCI   5
Larchmont Harb   N/A    N/A N/A N/A W6          N/A
Croton On Huds   N/A    N/A N/A N/A NE5         N/A
Somers           N/A     12   9  85 N1          N/A
Brewster         N/A     10   7  85 CALM        N/A
Newburgh       CLEAR      7   5  92 CALM      30.04F
Montgomery     FAIR       7   3  84 W5        30.02F WCI  -2
Otisville        N/A     16   7  67 NW3G15      N/A
Warwick          N/A      7   5  92 W3          N/A
Suffern          N/A     18   7  62 N7          N/A  WCI   8
Poughkeepsie   FAIR       1  -3  83 CALM      30.05F
Albany         FAIR       5   0  79 NE3       30.10S
$$

NJZ001-105-106-008-010-013-015-019>022-104-181100-
New Jersey

CITY           SKY/WX    TMP DP  RH WIND       PRES   REMARKS
Newark/Liberty FAIR      18   8  65 NW7       30.06F WCI   9
Teterboro      FAIR      16   8  71 W5        30.05F WCI   9
Caldwell       FAIR      13   8  81 SW3       30.06F
Somerville     FAIR       9   7  92 CALM      30.06R
Linden         FAIR      17   8  68 CALM      30.07F
Perth Amboy      N/A    N/A N/A N/A W9          N/A
Sussex         FAIR      -3  -6  87 CALM      30.02F
Andover        NOT AVBL
Trenton        FAIR      16   7  67 N8        30.03F WCI   5
Millville      FAIR      18   9  68 NW8       30.10S WCI   8
Atlantic City  FAIR      20  10  65 NW14      30.08S WCI   7
Wrightstown    FAIR      16   9  72 N10       30.02F WCI   4
Toms River     FAIR      17  10  74 NW12      30.04F WCI   4
Belmar         FAIR      16   9  74 NW13      30.04F WCI   2
$$

PAZ047>061-062-071-181100-
Eastern Pennsylvania

CITY           SKY/WX    TMP DP  RH WIND       PRES   REMARKS
Philadelphia   FAIR      18   6  59 NW9       30.09F WCI   7
Allentown      FAIR      14   4  64 SW8       30.07F WCI   3
Scranton       FAIR       9   5  84 SW7       30.07F WCI  -2
$$

CTZ002-004>006-009-010-012-RIZ004-006-007-MAZ004-011-015-181100-
Southern New England

 In CT

CITY           SKY/WX    TMP DP  RH WIND       PRES   REMARKS
Bradley Intl   FAIR       9   7  92 CALM      30.02F
Hartford       FAIR      12   9  87 CALM      30.04F
Danbury        FAIR      11   7  84 CALM      30.02F
Wtrbury/Oxford FAIR      11   7  84 N5        29.98F WCI   3
Norwalk Harbor   N/A    N/A N/A N/A NW9         N/A
Bridgeport     FAIR      19   9  65 NW8       30.03F WCI   9
Meriden        FAIR      13   8  81 W7        30.02F WCI   3
New Haven      FAIR      19   9  65 N8        30.01F WCI   9
Chester        FAIR      16   9  73 CALM      29.98F
Groton         FAIR      20  10  65 N8        30.01F WCI  10
Willimantic    FAIR      17  10  74 N3        29.99F

 In RI

CITY           SKY/WX    TMP DP  RH WIND       PRES   REMARKS
Providence     FAIR      22  16  78 NW8       30.01S WCI  12
Block Island   FAIR      23  21  92 N9        30.00F WCI  13
Westerly       FAIR      21  15  78 N7        30.01F WCI  12

In MA

CITY           SKY/WX    TMP DP  RH WIND       PRES   REMARKS
Boston         FAIR      24  17  74 W13       29.98F WCI  12
Worcester      FAIR      14   7  73 W17       29.92F WCI  -3
Westfield      FAIR       8   5  87 CALM      30.01F
Provincetown   FAIR      30  27  88 NW14      29.97F WCI  19
Nantucket      CLOUDY    33  32  96 N9        29.95F WCI  25
$$

ANZ330-335-338-340-345-350-353-355-181100-
Coastal Marine Observations


STATION/POSITION TIME  SKY/WX   TEMP    WIND        PRES    VSBY  WAVE
                                AIR SEA DIR/SP/G                  HT/PER
                 (UTC)          (F)     (DEG/KT/KT) (MB)    (MI)  (FT/S)
NY Harb Entrance 0850            25 41  330/ 21/ 27 1017.2          4/10
20 S Fire Island 0850            26 42  330/ 19/ 23 1017.4          5/10
15 E Barnegat Li 0930               42                N/A           6/ 6
Hudson Canyon    0850            33 49  360/ 19/ 25 1015.5          6/ 6
Kings Point      0930            20 32   10/  8/ 11 1018.8
Execution Rocks  NOT AVBL
Western LI Sound NOT AVBL
Central LI Sound 0930            22     310/ 14/ 17   N/A           2
Robbins Reef     0930            19     310/ 11/ 14 1019.1
$$


>>>>>>>>>>>>>>>>>>>>>>>>>>>> KEY <<<<<<<<<<<<<<<<<<<<<<<<<<<
>                                                          <
>     SKY/WX - Sky Condition/Present Weather               <
>     TMP    - Temperature in Fahrenheit                   <
>     DP     - Dew Point in Fahrenheit                     <
>     RH     - Relative Humidity in Percent                <
>     WIND   - Direction (from) and Speed in MPH           <
>     PRES   - Mean Sea Level Pressure (inches of Hg)      <
>     WCI    - Wind Chill Index                            <
>     VSB    - Visibility in Miles                         <
>     HX     - Heat Index                                  <
>     TC     - Temperature in Celsius                      <
>     VRB    - Varibale Wind Direction                     <
>                                                          <
>>>>>>>>>>>>>>>>>>>>>>>>>>>> KEY <<<<<<<<<<<<<<<<<<<<<<<<<<<




USA.gov is the U.S. government's official web portal to all federal, state and local government web resources and services.